Location: Cardiff
(53.7833°N, 113.6000°W)
Time: 05:02:01
(UTC+00:00)

SO-50 - Pass Details

Date: 11 December 2023
Orbit: 608 x 660 km, 64.6° (Epoch: 02 March)

Event Time Altitude Azimuth Distance (km) Brightness Sun altitude
Exits shadow 13:38:11 19° 335° (NNW) 1,546 ? -16.9°
Maximum altitude 13:39:37 21° 0° (N) 1,426 ? -16.7°
Drops below altitude 10° 13:43:08 10° 51° (NE) 2,020 ? -16.2°
Sets 13:45:53 0° 67° (ENE) 2,917 ? -15.8°
